This is the latest recevied weather packets stored in our database for station/object KA9CBS. If no packets are shown the sender has not sent any weather packets the latest 10 day(s).
| Time | Temp. | Humidity | Pressure | Rain* | Wind** | Luminosity | Snow |
|---|---|---|---|---|---|---|---|
| 1777483049 | 16.67° C | 65% | 1017.6 hPa | 0 mm | - | 668 W/m² | - |
| 1777482746 | 16.67° C | 66% | 1017.6 hPa | 0 mm | - | 741 W/m² | - |
| 1777482442 | 16.11° C | 72% | 1017.7 hPa | 0 mm | - | 750 W/m² | - |
| 1777482140 | 16.11° C | 66% | 1017.7 hPa | 0 mm | - | 727 W/m² | - |
| 1777481838 | 16.11° C | 68% | 1017.5 hPa | 0 mm | - | 756 W/m² | - |
| 1777481535 | 16.11° C | 70% | 1017.9 hPa | 0 mm | - | 713 W/m² | - |
| 1777481231 | 16.11° C | 69% | 1017.9 hPa | 0 mm | - | 706 W/m² | - |
| 1777480929 | 16.11° C | 71% | 1018.1 hPa | 0 mm | - | 688 W/m² | - |
| 1777480625 | 16.11° C | 69% | 1017.6 hPa | 0 mm | - | 325 W/m² | - |
| 1777480322 | 15.56° C | 68% | 1017.7 hPa | 0 mm | - | 671 W/m² | - |
| 1777480017 | 15.56° C | 72% | 1017.7 hPa | 0 mm | - | 646 W/m² | - |
| 1777479714 | 15.56° C | 68% | 1017.4 hPa | 0 mm | - | 651 W/m² | - |
| 1777479412 | 16.11° C | 67% | 1017.6 hPa | 0 mm | - | 657 W/m² | - |
| 1777479108 | 15.56° C | 69% | 1017.7 hPa | 0 mm | - | 636 W/m² | - |
| 1777478805 | 15.56° C | 68% | 1017.8 hPa | 0 mm | - | 638 W/m² | - |
| 1777478502 | 15.56° C | 67% | 1017.8 hPa | 0 mm | - | 639 W/m² | - |
| 1777478199 | 15.56° C | 77% | 1017.7 hPa | 0 mm | - | 627 W/m² | - |
| 1777477895 | 15.56° C | 71% | 1017.7 hPa | 0 mm | - | 615 W/m² | - |
| 1777477590 | 15.56° C | 71% | 1017.6 hPa | 0 mm | - | 599 W/m² | - |
| 1777477287 | 15° C | 71% | 1017.5 hPa | 0 mm | - | 580 W/m² | - |
| 1777476984 | 15.56° C | 72% | 1017.3 hPa | 0 mm | - | 573 W/m² | - |
| 1777476682 | 15° C | 72% | 1017.4 hPa | 0 mm | - | 527 W/m² | - |
| 1777476378 | 15° C | 72% | 1017.5 hPa | 0 mm | - | 560 W/m² | - |
| 1777476075 | 15° C | 74% | 1017.2 hPa | 0 mm | - | 536 W/m² | - |
| 1777475769 | 15° C | 77% | 1017.4 hPa | 0 mm | - | 532 W/m² | - |
* Rain latest hour (hover to see other rain measurements)
** Current wind speed in m/s (hover to see current wind gust speed)